Погода в Евлахе

Погода в Евлахе : погода сейчас, прогноз погоды и архив. Всё, что Вы хотите узнать о погоде в Евлахе!

Поиск расширенной информации на нашем сайте:

Другие новости

Новости СМИ2

Главная страница сайта

Новости сайта

03.07.2017

Напоминаем, что на нашем специализированном сайте Метеоцентр.Азия вы можете получить высокодетализированные автоматические прогнозы погоды по пунктам России, СНГ и мира в авиационном формате (включающие направление и скорость ветра, видимость, явления погоды, количество и форму облачности, нижнюю и верхнюю границу облачности).


Погода в Евлахе - сегодня

Время (UTC), дата Ветер
(°,м/с) 
Видим.   Явления Облачность Т
(°С)
Тd
(°С)
f(%) Тe
(°С)
Pmin
(гПа)
dP
(гПа)
Po
(мм)
O2
(г/м3)
Тmin Tmax R s Состояние
почвы
03 18.07.17 тихо ()   20000 м    ясно 
+21.9 +15.9 69 +32  1013.8  0.6  759  280           
06 18.07.17 020 (С) 20000 м    ясно 
+28.5 +17.4 51 +41  1013.4  -0.4  759  273           
09 18.07.17 190 (Ю) 20000 м    ясно 
+35.7 +8.8 19 +36  1011.4  -0.9  757  268           
12 18.07.17 140 (ЮВ) 20000 м    ясно 
+37.2 +6.7 15 +37  1009.4  -2  756  267           
15 18.07.17 160 (Ю) 20000 м    ясно 
+34.7 +14.3 29 +42  1009.1  -0.3  756  267           
18 18.07.17 150 (ЮВ) 20000 м    ясно 
+28.9 +11.9 35 +32  1010.6  1.4  757  274    +38.1       
21 18.07.17 120 (ЮВ) 20000 м    ясно 
+22.7 +12.1 51 +27  1011  0.4  757  279           
00 19.07.17 090 (В) 20000 м    5/0 средняя 
[Ac trans]
+20.6 +13.8 65 +27  1010.4  -0.6  757  281           
03 19.07.17 тихо ()   20000 м    6/0 средняя 
[Ac trans]
+22.2 +13.8 59 +29  1011.4  757  279           
06 19.07.17 080 (В) 20000 м    8/0 средняя 
[Ac trans]
+30 +8.8 27 +30  1011.4  757  273           
09 19.07.17 тихо ()   20000 м    3/0 верхняя 
[Ci fib]
+34.3 +7 19 +34  1009.4  -1.9  756  269           
12 19.07.17 130 (ЮВ) 20000 м    ясно 
+37.1 +5.1 14 +37  1007.1  -2.3  754  267           
15 19.07.17 170 (Ю) 20000 м    6/0 средняя 
[Ac trans]
+35.4 +8.5 19 +35  1005.8  -1.3  753  267           
18 19.07.17 140 (ЮВ) 20000 м    ясно 
+26.7 +14.4 47 +34  1007  1.1  754  274    +37.1       
21 19.07.17 140 (ЮВ) 20000 м    ясно 
+24.1 +13.7 52 +30  1007.7  0.7  755  277           
00 20.07.17 240 (ЮЗ) 20000 м    ясно 
+23.4 +14.7 58 +31  1006.7  -1  754  277           
03 20.07.17 270 (З) 20000 м    4/0 средняя 
[Ac trans]
+22.6 +14.7 61 +31  1007.9  1.2  755  278           
09 20.07.17 150 (ЮВ) 20000 м    5/0 средняя 
[Ac trans]
+36 +2.5 12 +36  1007.1  -1  754  268           
12 20.07.17 180 (Ю) 20000 м    4/0 средняя 
[Ac trans]
+37 +4.1 13 +37  1005  -2.1  753  266           
15 20.07.17 200 (Ю) 20000 м    ясно 
+35.8 +4 14 +36  1004.2  -0.8  752  267           
21 20.07.17 250 (З) 20000 м    ясно 
+25.2 +11.4 42 +28  1005.8  753  276           
00 21.07.17 150 (ЮВ) 20000 м    ясно 
+23.1 +13 53 +28  1006.8  754  278           
03 21.07.17 тихо ()   20000 м    ясно 
+22.5 +13.3 56 +28  1008  1.2  755  278           
06 21.07.17 030 (СВ) 20000 м    ясно 
+30 +15.4 41 +39  1009  755  271           
09 21.07.17 120 (ЮВ) 20000 м    ясно 
+35.7 +14.2 28 +43  1007.9  -1  755  266           
Время (UTC), дата Ветер
(°,м/с) 
Видим.   Явления Облачность Т
(°С)
Тd
(°С)
f(%) Тe
(°С)
Pmin
(гПа)
dP
(гПа)
Po
(мм)
O2
(г/м3)
Тmin Tmax R s Состояние
почвы

Для получения пояснительной информации подведите курсор к названию столбца.

ПОГОДА в Евлахе - архив

Всё, что Вы хотите узнать о погоде в Евлахе - удобно и подробно!

Выберите нужную дату (начиная с 1 января 2015* года) и нажмите кнопку "Найти".
Будут отображены архивные сводки погоды по пункту Евлах, начиная с указанной даты.


Отображать данные в формате CSV (для использования в таблицах Excel)


Внимание! Наш архив погоды предназначен исключительно для личного некоммерческого использования в познавательных целях. Если Вам необходимы официальные справки о состоянии погоды (для производственных, юридических, коммерческих и т.п. целей), обращайтесь в органы Росгидромета.

*Примечание: данная дата относится к архиву по метеостанциям СССР (Россия, СНГ, Балтия).
Архив по метеостанциям Зарубежной Европы и Азии (кроме Китая) хранится 10 дней, по другим регионам земного шара (Китай, Африка, Америка, Австралия, Океания) - 1 день.

Евлах - район местоположения метеостанции


Название, широта, долгота, высота метеостанции:
Евлах (АМСГ) 40.6°ш. 47.2°д. 15 м над ур. моря [Азербайджан]

Дополнительная информация

В oтличие oт бoльшинства пoгoдных сайтoв мы публикуем пoдрoбную метеoинфoрмацию в детальнoм прoфессиoнальнoм фoрмате.

Характеристики температуры и влажнoсти вoздуха измеряются на высoте 2 м в тени вдали oт зданий и деревьев.
Скoрoсть ветра измеряется на высoте 10 м (на урoвне рoста челoвека скoрoсть ветра ниже в 1.5-2 раза). Если метеoстанция нахoдится в гoрoде или в лесу, тo скoрoсть ветра занижена на 2-4 м/с пo сравнению с oткрытым местoм. Скoрoсть ветра над акватoриями крупных рек и oзёр, а также на вершинах хoлмoв на 2-5 м/с выше, чем в oбычных услoвиях.
Атмoсфернoе давление в разных тoчках местнoсти мoжет значительнo oтличаться oт давления на метеoстанции, в зависимoсти oт услoвий рельефа (при пoдъёме на 10 м давление пoнижается примернo на 1 мм рт.ст.).